TimeCST,TemperatureF,Dew PointF,Humidity,Sea Level PressureIn,VisibilityMPH,Wind Direction,Wind SpeedMPH,Gust SpeedMPH,PrecipitationIn,Events,Conditions,WindDirDegrees,DateUTC
12:24 AM,30.2,28.4,93,30.12,10.0,NW,3.5,-,N/A,,Overcast,320,2013-01-16 06:24:00
12:53 AM,30.9,27.0,85,30.15,10.0,NW,6.9,-,N/A,,Overcast,320,2013-01-16 06:53:00
1:05 AM,30.2,26.6,86,30.12,10.0,Variable,3.5,-,N/A,,Overcast,0,2013-01-16 07:05:00
1:53 AM,32.0,27.0,82,30.18,10.0,NW,5.8,-,N/A,,Overcast,320,2013-01-16 07:53:00
2:53 AM,32.0,27.0,82,30.17,10.0,Calm,Calm,-,N/A,,Overcast,0,2013-01-16 08:53:00
3:53 AM,32.0,26.1,79,30.19,10.0,Calm,Calm,-,N/A,,Overcast,0,2013-01-16 09:53:00
4:53 AM,30.9,25.0,79,30.16,10.0,Calm,Calm,-,N/A,,Overcast,0,2013-01-16 10:53:00
5:53 AM,30.9,23.0,72,30.16,10.0,Calm,Calm,-,N/A,,Overcast,0,2013-01-16 11:53:00
6:53 AM,30.9,21.0,67,30.19,10.0,NW,3.5,-,N/A,,Overcast,320,2013-01-16 12:53:00
7:53 AM,30.0,21.0,69,30.21,10.0,NNW,3.5,-,N/A,,Overcast,340,2013-01-16 13:53:00
8:53 AM,30.9,21.9,69,30.23,10.0,Calm,Calm,-,N/A,,Clear,0,2013-01-16 14:53:00
9:53 AM,34.0,19.9,56,30.22,10.0,NW,3.5,-,N/A,,Clear,320,2013-01-16 15:53:00
10:53 AM,37.9,18.0,45,30.20,10.0,NNW,4.6,-,N/A,,Clear,340,2013-01-16 16:53:00
11:53 AM,39.9,10.9,31,30.17,10.0,Calm,Calm,-,N/A,,Clear,0,2013-01-16 17:53:00
12:53 PM,44.1,12.0,27,30.13,10.0,Variable,3.5,-,N/A,,Clear,0,2013-01-16 18:53:00
1:53 PM,45.0,9.0,23,30.12,10.0,Variable,4.6,-,N/A,,Clear,0,2013-01-16 19:53:00
2:53 PM,46.9,10.9,23,30.11,10.0,WNW,5.8,-,N/A,,Clear,300,2013-01-16 20:53:00
3:53 PM,46.9,10.9,23,30.11,10.0,North,5.8,-,N/A,,Clear,350,2013-01-16 21:53:00
4:53 PM,44.1,9.0,24,30.13,10.0,NNW,3.5,-,N/A,,Clear,340,2013-01-16 22:53:00
5:53 PM,39.9,14.0,35,30.15,10.0,Calm,Calm,-,N/A,,Clear,0,2013-01-16 23:53:00
6:53 PM,34.0,16.0,48,30.17,10.0,Calm,Calm,-,N/A,,Clear,0,2013-01-17 00:53:00
7:53 PM,30.9,17.1,57,30.18,10.0,Calm,Calm,-,N/A,,Clear,0,2013-01-17 01:53:00
8:53 PM,28.9,19.9,69,30.20,10.0,Calm,Calm,-,N/A,,Clear,0,2013-01-17 02:53:00
9:53 PM,28.0,19.9,72,30.19,10.0,Calm,Calm,-,N/A,,Clear,0,2013-01-17 03:53:00
10:53 PM,27.0,19.9,75,30.21,10.0,Calm,Calm,-,N/A,,Clear,0,2013-01-17 04:53:00
11:53 PM,26.1,19.9,78,30.20,10.0,Calm,Calm,-,N/A,,Clear,0,2013-01-17 05:53:00